Change the Weather History Date:

Thursday, January 30, 2014

  Actual Average Record
Temperature  
Mean Temperature 27 °F -  
Max Temperature 33 °F 40 °F 60 °F (2002)
Min Temperature 21 °F 24 °F 10 °F (2005)
Degree Days  
Heating Degree Days 38    
Moisture  
Dew Point 25 °F    
Average Humidity 85    
Maximum Humidity 93    
Minimum Humidity 75    
Precipitation  
Precipitation 0.00 in - - ()
Sea Level Pressure  
Sea Level Pressure 30.13 in    
Wind  
Wind Speed 10 mph ()    
Max Wind Speed 16 mph    
Max Gust Speed -    
Visibility 2.9 miles    
Events Fog    
Averages and records for this station are not official NWS values.
T = Trace of Precipitation, MM = Missing Value Source: Averaged Metar Reports

Daily Weather History Graph

Daily Weather History Graph

Search for Another Location

Airport or City:

Trip Planner

Search our weather history database for the weather conditions in past years. The results will help you decide how hot, cold, wet, or windy it might be!

Date:

Astronomy

Jan. 30, 2014 Rise Set
Actual Time 7:11 AM CET 4:41 PM CET
Civil Twilight 6:38 AM CET 5:14 PM CET
Nautical Twilight 6:01 AM CET 5:51 PM CET
Astronomical Twilight 5:25 AM CET 6:27 PM CET
Moon 6:21 AM CET (1/30) 4:34 PM CET (1/30)
Length of Visible Light 10h 35m
Length of Day
9h 29m
Waning Crescent, 0% of the Moon is Illuminated
Jan 30
Waning Crescent
Jan 30
New
Feb 6
First Quarter
Feb 15
Full
Feb 22
Last Quarter

Hourly Weather History & Observations

Time (CET) Temp. Windchill Dew Point Humidity Pressure Visibility Wind Dir Wind Speed Gust Speed Precip Events Conditions
12:00 AM 26.6 °F 17.5 °F 23.0 °F 86% 30.01 in 3.7 mi ESE 9.2 mph - N/A   Overcast
12:30 AM 26.6 °F 16.8 °F 23.0 °F 86% 30.01 in 3.7 mi East 10.4 mph - N/A   Overcast
1:00 AM 26.6 °F 16.8 °F 23.0 °F 86% 30.04 in 3.7 mi ESE 10.4 mph - N/A   Overcast
1:30 AM 26.6 °F 17.5 °F 23.0 °F 86% 30.04 in 3.7 mi ESE 9.2 mph - N/A   Overcast
2:00 AM 26.6 °F 17.5 °F 23.0 °F 86% 30.06 in 3.1 mi SE 9.2 mph - N/A   Overcast
2:30 AM 26.6 °F 17.5 °F 23.0 °F 86% 30.06 in 3.1 mi ESE 9.2 mph - N/A   Mostly Cloudy
3:00 AM 26.6 °F 17.5 °F 23.0 °F 86% 30.06 in 3.1 mi ESE 9.2 mph - N/A   Mostly Cloudy
3:30 AM 26.6 °F 18.2 °F 23.0 °F 86% 30.06 in 3.1 mi ESE 8.1 mph - N/A   Overcast
4:00 AM 24.8 °F 16.1 °F 23.0 °F 93% 30.06 in 3.1 mi ESE 8.1 mph - N/A   Overcast
4:30 AM 26.6 °F 17.5 °F 23.0 °F 86% 30.09 in 2.8 mi ESE 9.2 mph - N/A   Overcast
5:00 AM 26.6 °F 18.2 °F 23.0 °F 86% 30.09 in 2.8 mi East 8.1 mph - N/A   Overcast
5:30 AM 23.0 °F 14.7 °F 19.4 °F 86% 30.09 in 2.5 mi East 6.9 mph - N/A   Overcast
6:00 AM 23.0 °F 13.9 °F 19.4 °F 86% 30.09 in 1.0 mi ENE 8.1 mph - N/A   Mostly Cloudy
6:30 AM 21.2 °F 11.7 °F 19.4 °F 93% 30.09 in 0.9 mi East 8.1 mph - N/A Fog Patches of Fog
7:00 AM 23.0 °F 13.9 °F 21.2 °F 93% 30.12 in 0.9 mi East 8.1 mph - N/A Fog Patches of Fog
7:30 AM 21.2 °F 10.9 °F 19.4 °F 93% 30.12 in 1.1 mi East 9.2 mph - N/A Fog Patches of Fog
8:00 AM 23.0 °F 14.7 °F 21.2 °F 93% 30.12 in 1.9 mi East 6.9 mph - N/A   Mostly Cloudy
8:30 AM 24.8 °F 15.3 °F 23.0 °F 93% 30.12 in 2.8 mi East 9.2 mph - N/A   Mist
9:00 AM 26.6 °F 18.2 °F 23.0 °F 86% 30.15 in 3.1 mi East 8.1 mph - N/A   Mist
9:30 AM 26.6 °F 16.8 °F 23.0 °F 86% 30.15 in 3.1 mi East 10.4 mph - N/A   Mist
10:00 AM 26.6 °F 16.8 °F 23.0 °F 86% 30.15 in 3.1 mi East 10.4 mph - N/A   Mostly Cloudy
10:30 AM 28.4 °F 18.5 °F 24.8 °F 86% 30.18 in 3.1 mi East 11.5 mph - N/A   Mostly Cloudy
11:00 AM 28.4 °F 17.5 °F 24.8 °F 86% 30.18 in 2.8 mi East 13.8 mph - N/A   Overcast
11:30 AM 30.2 °F 20.2 °F 24.8 °F 80% 30.18 in 2.8 mi East 12.7 mph - N/A   Mostly Cloudy
12:00 PM 30.2 °F 20.2 °F 24.8 °F 80% 30.18 in 2.5 mi ENE 12.7 mph - N/A   Mostly Cloudy
12:30 PM 32.0 °F 22.1 °F 26.6 °F 80% 30.15 in 2.8 mi East 13.8 mph - N/A   Mostly Cloudy
1:00 PM 32.0 °F 21.2 °F 26.6 °F 80% 30.15 in 2.8 mi East 16.1 mph - N/A   Scattered Clouds
1:30 PM 32.0 °F 21.6 °F 26.6 °F 80% 30.15 in 3.1 mi East 15.0 mph - N/A   Mist
2:00 PM 32.0 °F 22.1 °F 26.6 °F 80% 30.15 in 3.1 mi ENE 13.8 mph - N/A   Mist
2:30 PM 32.0 °F 21.6 °F 26.6 °F 80% 30.15 in 3.1 mi East 15.0 mph - N/A   Mist
3:00 PM 33.8 °F 24.3 °F 26.6 °F 75% 30.15 in 3.1 mi East 13.8 mph - N/A   Mist
3:30 PM 32.0 °F 23.0 °F 26.6 °F 80% 30.15 in 3.1 mi ENE 11.5 mph - N/A   Mist
4:00 PM 33.8 °F 24.8 °F 26.6 °F 75% 30.15 in 3.1 mi East 12.7 mph - N/A   Mist
4:30 PM 32.0 °F 22.5 °F 26.6 °F 80% 30.15 in 3.1 mi ENE 12.7 mph - N/A   Mist
5:00 PM 33.8 °F 24.3 °F 28.4 °F 81% 30.15 in 3.1 mi East 13.8 mph - N/A   Mist
5:30 PM 32.0 °F 22.1 °F 28.4 °F 87% 30.18 in 3.1 mi East 13.8 mph - N/A   Mist
6:00 PM 32.0 °F 22.5 °F 28.4 °F 87% 30.18 in 3.1 mi East 12.7 mph - N/A   Mist
6:30 PM 32.0 °F 23.6 °F 28.4 °F 87% 30.18 in 3.1 mi East 10.4 mph - N/A   Mist
7:00 PM 32.0 °F 23.0 °F 28.4 °F 87% 30.18 in 3.1 mi East 11.5 mph - N/A   Mist
7:30 PM 32.0 °F 22.5 °F 28.4 °F 87% 30.18 in 3.1 mi ENE 12.7 mph - N/A   Mist
8:00 PM 32.0 °F 22.1 °F 28.4 °F 87% 30.18 in 3.1 mi East 13.8 mph - N/A   Mist
8:30 PM 32.0 °F 23.0 °F 28.4 °F 87% 30.18 in 3.1 mi East 11.5 mph - N/A   Mist
9:00 PM 32.0 °F 22.5 °F 28.4 °F 87% 30.18 in 3.1 mi East 12.7 mph - N/A   Mist
9:30 PM 32.0 °F 23.0 °F 28.4 °F 87% 30.18 in 3.7 mi East 11.5 mph - N/A   Unknown
10:00 PM 32.0 °F 24.2 °F 28.4 °F 87% 30.18 in 3.7 mi East 9.2 mph - N/A   Unknown
10:30 PM 32.0 °F 22.5 °F 28.4 °F 87% 30.18 in 3.7 mi East 12.7 mph - N/A   Partly Cloudy
11:00 PM 32.0 °F 22.1 °F 28.4 °F 87% 30.18 in 3.7 mi East 13.8 mph - N/A   Unknown
11:30 PM 32.0 °F 22.5 °F 28.4 °F 87% 30.21 in 3.7 mi East 12.7 mph - N/A   Unknown